Home   Weather   Santa Barbara   Past weeks

Flag for USA Past Weather in Santa Barbara, California, USA — Yesterday and Last 2 Weeks

55 °F


Feels Like: 55 °F
Forecast: 56 / 82 °F
Wind: No wind

Location: Santa Barbara Municipal Airport

Current Time: Oct 21, 2016 at 6:11:02 AM

Latest Report: Oct 21, 2016 at 4:53 AM

Visibility: 10 mi

Pressure: 29.84 "Hg

Humidity: 67%

Dew Point: 44 °F

Location of Santa BarbaraLocation

Past Weather in Santa Barbara — Graph


Santa Barbara Temperature Yesterday

Maximum temperature yesterday: 89 °F (at 2:53 PM)
Minimum temperature yesterday: 51 °F (at 3:53 AM)
Average temperature yesterday: 69 °F

High & Low Weather Summary for the Past Weeks

High89 °F (Oct 20, 2:53 PM)100% (Oct 13, 3:53 AM)30.09 "Hg (Oct 13, 3:53 AM)
Low47 °F (Oct 9, 2:53 AM)8% (Oct 7, 1:53 PM)29.83 "Hg (Oct 7, 4:53 PM)
Average63 °F72%29.95 "Hg
* Reported Oct 6 4:53 AM — Oct 21 4:53 AM, Santa Barbara, Weather by CustomWeather, © 2016

Note: Actual official high and low records may vary slightly from our data, if they occured in-between our weather recording intervals... More about our weather records


Santa Barbara Weather History for the Previous 24 Hours

Scroll right to see more
Time TempWeatherWind HumidityBarometerVisibility
4:53 AM
Fri, Oct 21
55 °FClear.No wind67%29.84 "Hg10 mi
3:53 AM54 °FClear.No wind72%29.83 "Hg10 mi
2:53 AM55 °FClear.3 mph69%29.85 "Hg10 mi
1:53 AM57 °FClear.No wind72%29.85 "Hg10 mi
12:53 AM57 °FClear.No wind72%29.86 "Hg10 mi
11:53 PM
Thu, Oct 20
59 °FClear.No wind75%29.87 "Hg10 mi
10:53 PM59 °FClear.No wind90%29.88 "Hg10 mi
9:53 PM63 °FClear.3 mph87%29.89 "Hg10 mi
8:53 PM63 °FClear.6 mph87%29.88 "Hg10 mi
7:53 PM69 °FClear.No wind31%29.88 "Hg10 mi
6:53 PM75 °FClear.5 mph22%29.88 "Hg10 mi
5:53 PM81 °FSunny.8 mph18%29.88 "Hg10 mi
4:53 PM86 °FSunny.7 mph13%29.88 "Hg10 mi
3:53 PM88 °FSunny.12 mph11%29.89 "Hg10 mi
2:53 PM89 °FSunny.10 mph12%29.90 "Hg10 mi
1:53 PM88 °FSunny.8 mph12%29.92 "Hg10 mi
12:53 PM86 °FSunny.10 mph14%29.95 "Hg10 mi
11:53 AM84 °FSunny.7 mph15%29.97 "Hg10 mi
10:53 AM81 °FSunny.3 mph18%29.98 "Hg10 mi
9:53 AM80 °FSunny.No wind20%29.99 "Hg10 mi
8:53 AM67 °FSunny.No wind44%29.98 "Hg10 mi
7:53 AM55 °FSunny.No wind59%29.97 "Hg10 mi
6:53 AM52 °FClear.No wind66%29.97 "Hg10 mi
Weather by CustomWeather, © 2016

See weather overviewHow to use our weather pages